Location: Kearney
(40.6990°N, 99.0810°W)
Time: 00:02:56
(UTC-05:00)

Daily predictions for brighter satellites

Satellite Brightness Start Highest point End
(mag) Time Altitude Azimuth Time Altitude Azimuth Time Altitude Azimuth
USA 215 3.7 00:08:55 58° NW 00:08:55 58° NW 00:14:01 10° NW
Cosmos 2263 Rocket 4.1 00:13:33 10° NW 00:16:14 23° WNW 00:16:14 23° WNW
Cosmos 2278 Rocket 4.2 01:05:32 10° NNW 01:07:42 24° NNW 01:07:42 24° NNW
ATLAS 3B R/B 3.8 01:25:38 41° NNE 01:25:38 41° NNE 01:30:07 10° NNE
Cosmos 2219 Rocket 4.3 01:58:57 21° NNW 01:58:57 21° NNW 02:01:17 10° N
SL-16 R/B 4.1 02:19:50 26° NNE 02:19:50 26° NNE 02:22:12 10° NNE
Cosmos 2237 Rocket 4.2 02:21:29 22° NNW 02:21:29 22° NNW 02:24:02 10° N
CZ-4C R/B 4.0 02:26:08 27° NNE 02:26:08 27° NNE 02:28:49 10° NNE
Cosmos 2333 Rocket 4.3 02:27:35 21° NNW 02:27:35 21° NNW 02:30:18 10° N
NOSS 3-2 (C) 4.5 02:58:41 42° NE 02:58:41 42° NE 03:03:02 10° NE
ATLAS 3B R/B 4.4 03:12:52 24° NW 03:14:20 25° NW 03:20:14 10° NNE
CZ-3A R/B 4.3 03:17:27 36° NW 03:18:04 36° NW 03:22:20 10° NE
Resurs 1-4 Rocket 4.0 03:21:06 10° NE 03:24:59 22° E 03:24:59 22° E
Cosmos 1943 4.1 03:28:03 44° NE 03:28:03 44° NE 03:31:56 10° NNE
Cosmos 2369 Rocket 3.5 03:30:57 10° NNW 03:33:56 33° NNW 03:33:56 33° NNW
Meteor 2-3 Rocket 4.4 03:31:51 10° N 03:36:18 52° NNE 03:36:18 52° NNE
Cosmos 839 Rocket 4.5 03:31:02 10° NNW 03:38:06 67° NW 03:38:06 67° NW
Cosmos 1943 Rocket 3.2 03:42:25 10° N 03:47:48 42° ENE 03:50:11 28° ESE
Cosmos 2315 Rocket 4.4 03:47:44 53° ESE 03:48:07 54° E 03:54:14 10° NNE
SL-16 R/B 4.5 04:01:42 12° NW 04:01:42 12° NW 04:03:57 10° NNW
USA 234 3.4 04:01:45 10° NE 04:08:10 57° SE 04:08:50 54° SSE
Meteor 2-10 4.2 04:10:53 72° N 04:10:53 72° N 04:15:40 10° N
IRS-1D 3.7 04:06:51 10° NNE 04:11:54 71° E 04:11:54 71° E
CZ-4C R/B 4.1 04:11:18 18° NW 04:12:25 19° NNW 04:16:39 10° NNE
Spot 4 Rocket 4.3 04:07:51 10° N 04:12:07 60° N 04:12:07 60° N
ARIANE 5 R/B 2.6 04:10:18 10° NNE 04:15:13 76° NE 04:15:13 76° NE
Cosmos 1733 Rocket 3.9 04:15:26 10° N 04:18:46 48° NNE 04:18:46 48° NNE
ATLAS 5 CENTAUR R/B 2.2 04:20:31 58° NNW 04:20:31 58° NNW 04:25:04 10° NNE
Cosmos 389 Rocket 4.3 04:26:32 30° NE 04:26:32 30° NE 04:28:36 10° NNE
SL-16 R/B 2.4 04:26:22 61° S 04:27:31 81° WSW 04:33:46 10° NNW
Cosmos 1709 Rocket 3.9 04:23:44 10° NNW 04:30:01 67° W 04:30:26 65° WSW
CZ-2D R/B 4.3 04:29:54 10° NNE 04:34:07 47° E 04:34:35 45° ESE
ADEOS 4.2 04:29:54 10° N 04:34:16 43° NW 04:34:16 43° NW
CENTAUR R/B 2.4 04:34:26 62° SSW 04:35:37 89° ESE 04:42:31 10° NE
CZ-2D R/B 1.9 04:36:30 10° N 04:41:45 75° WNW 04:42:14 69° WSW
Cosmos 1992 Rocket 4.4 04:41:02 10° NNW 04:46:14 63° ENE 04:51:25 10° SSE
Cosmos 1908 Rocket 3.8 04:47:15 10° N 04:51:37 65° E 04:53:33 31° SSE
SL-27 R/B 3.2 04:53:46 46° N 04:53:46 46° N 04:56:31 10° NNE
Cosmos 2074 Rocket 4.0 04:47:22 10° N 04:53:38 83° E 04:59:53 10° S
EO 1 Del DPAF 3.8 04:55:11 46° NW 04:55:11 46° NW 04:58:04 10° NNW
Cosmos 2327 Rocket 4.5 04:49:19 10° N 04:55:28 82° E 05:01:40 10° S
UNKNOWN OBJECT B 3.0 04:54:20 10° N 04:57:28 55° NNW 04:57:28 55° NNW
Cosmos 2184 Rocket 4.0 04:54:49 10° N 05:01:14 90° WSW 05:07:34 10° S
Cosmos 1862 3.2 05:00:49 10° N 05:04:49 90° NNW 05:05:48 50° S
Resurs 1-4 Rocket 2.4 05:00:11 10° N 05:05:11 45° WNW 05:06:03 41° W
USA 32 4.3 05:02:38 17° S 05:06:40 67° E 05:11:52 10° N
Okean O Rocket 1.8 05:03:11 10° NNE 05:07:39 70° ESE 05:09:52 29° S
Cosmos 1869 4.4 05:09:31 30° NW 05:09:31 30° NW 05:12:21 10° NNW
Cosmos 2221 Rocket 3.8 05:06:39 29° S 05:08:51 70° E 05:13:15 10° NNE
Cosmos 1703 Rocket 3.6 05:07:23 34° S 05:09:20 80° E 05:13:50 10° N
ADEOS II 4.0 05:09:28 10° NE 05:13:57 28° E 05:18:25 10° SSE
Cosmos 1455 4.1 05:18:36 17° NW 05:18:36 17° NW 05:20:22 10° NNW
COSMOS 2406 3.4 05:19:48 33° SW 05:22:12 56° WNW 05:27:53 10° NNE
Cosmos 1408 2.6 05:18:49 10° NNW 05:22:31 57° W 05:23:14 47° SW
Sich 1 Rocket 3.9 05:19:20 10° NNW 05:23:30 42° W 05:24:18 38° WSW
Cosmos 1933 3.7 05:27:34 38° WSW 05:28:25 44° WNW 05:32:21 10° N
MOZ.5/SAFIR/RUBIN 5/SL-8 3.7 05:24:06 10° S 05:28:41 65° W 05:33:18 10° NNW
CZ-4B R/B 3.1 05:24:20 10° NNE 05:29:40 88° ESE 05:34:28 13° SSW
Cosmos 1943 Rocket 3.0 05:26:38 10° NW 05:31:18 27° WSW 05:31:30 27° WSW
CZ-4B DEB 4.2 05:28:34 10° NNE 05:34:04 88° ESE 05:39:32 10° SSW
Cosmos 2285 Rocket 4.2 05:28:47 10° NNW 05:34:57 51° WSW 05:41:03 10° S
Okean 1-7 2.9 05:31:49 17° S 05:35:08 85° W 05:39:31 10° N
IRS-1C Rocket 4.1 05:30:07 10° N 05:35:20 63° WNW 05:39:06 19° SSW
Cosmos 407 Rocket 3.4 05:31:50 19° SSW 05:35:40 86° WNW 05:41:00 10° NNE
SeaSat 1 2.4 05:33:08 10° SSE 05:38:01 67° WSW 05:42:57 10° NNW
GPS 2-05 Rocket1 3.9 05:38:31 27° SSW 05:39:16 30° S 05:42:15 10° ESE
CZ-4B R/B 2.6 05:38:06 10° N 05:41:48 68° WNW 05:44:28 19° SSW
Atlas Centaur 2 3.1 05:42:14 16° SSW 05:43:53 20° SSE 05:47:26 10° ESE
Cosmos 2082 Rocket 4.1 05:40:54 10° SSE 05:45:43 29° ESE 05:50:31 10° NE
Cosmos 1825 3.2 05:46:23 10° NW 05:49:32 25° W 05:50:13 24° WSW
Cosmos 1140 Rocket 4.4 05:44:44 10° S 05:49:38 47° ESE 05:54:33 10° NNE
USA 234 3.8 05:44:52 10° NE 05:51:04 47° NNW 05:56:11 15° W
ARIANE 5 R/B 4.4 05:51:30 10° NNW 05:53:57 13° WNW 05:55:33 12° W
Abrixas rocket 2.1 05:52:32 12° WNW 05:55:36 86° SSW 05:58:55 10° ESE
Okean 2 Rocket 3.3 05:51:40 10° NNW 05:56:03 50° W 06:00:25 10° SSW
Cosmos 1656 Rocket 4.1 05:51:28 10° NW 05:56:20 34° WSW 06:01:10 10° SSW
Aureole 3 Rocket 4.0 05:52:54 10° SSW 05:59:10 45° W 06:03:44 10° N
Geosat 4.3 05:56:12 10° NNE 06:01:14 68° ESE 06:06:13 10° SSW
PSLV R/B 4.2 06:01:48 19° WSW 06:03:34 31° SSW 06:06:37 10° SE
ATLAS 5 CENTAUR R/B 4.0 06:03:03 10° WNW 06:05:42 14° NNW 06:08:26 10° N
Cosmos 1674 Rocket 4.4 06:02:47 10° S 06:07:06 54° E 06:11:24 10° NNE
SL-24 R/B - RUBIN 2 4.5 06:00:32 10° NW 06:07:12 69° WSW 06:13:20 10° SSE
Cosmos 1782 Rocket 4.4 06:05:25 10° NNW 06:09:07 28° W 06:12:48 10° SSW
AVUM R/B 4.5 06:08:21 16° WSW 06:10:09 26° WNW 06:13:02 10° N
ADEOS Rocket 3.6 06:03:44 10° N 06:11:33 80° WNW 06:19:10 10° SSW
SL-16 R/B 4.2 06:11:29 11° W 06:12:02 11° W 06:13:33 10° WNW
Meteor 1-31 Rocket 3.5 06:09:08 10° NNE 06:12:54 54° E 06:16:37 10° S
COSMOS 2487 3.9 06:18:08 12° WSW 06:20:38 22° WNW 06:23:32 10° N
Cosmos 2366 rocket 4.4 06:18:26 10° N 06:24:39 70° E 06:30:46 10° SSE
Cosmos 1300 Rocket 4.2 06:21:21 10° N 06:25:38 60° E 06:29:53 10° SSE
Cosmos 1570 Rocket 4.2 06:21:33 10° NNW 06:26:48 78° ENE 06:32:01 10° SSE
CENTAUR R/B 4.1 06:22:18 10° W 06:27:20 23° NNW 06:32:50 10° NNE
Meteor 1-25 Rocket 4.2 06:23:50 10° NNW 06:29:18 61° W 06:34:47 10° S
USA 129 3.1 06:31:08 11° W 06:31:08 11° W 06:31:31 10° WNW
Cosmos 2181 Rocket 4.3 06:25:56 10° SSW 06:32:10 52° WNW 06:38:23 10° N
Meteor 1-20 Rocket 4.3 06:27:57 10° NNW 06:33:38 66° W 06:39:21 10° S
COSMO-SKYMED 1 3.7 06:29:43 10° SSE 06:33:54 51° ENE 06:38:08 10° N
SL-08 R/B 4.5 06:31:38 10° N 06:37:48 85° W 06:43:54 10° S
